[[{"header":{"parameterUnit":"m.s-1","parameterCategory":1,"la1":30.2992,"la2":30.254,"lo1":-89.0895,"lo2":-89.0443,"dy":0.0025,"dx":0.0025,"nx":19,"ny":19,"refTime":"2026-05-08T21:00:00:Z","depth":0,"parameterNumber":2,"parameterNumberName":"U-component_of_WINDS"},"data":[0,0,0,3.7423,3.7426,3.7522,3.7523,3.7657,3.7658,0,0,0,0,0,0,0,0,0,0,0,3.7402,3.7403,3.7423,3.7426,3.7522,3.7523,3.7657,3.7658,0,0,0,0,0,0,0,0,0,0,0,3.7402,3.7403,3.7405,3.7426,3.7522,3.7523,3.7656,3.7579,0,0,0,0,0,0,0,0,0,0,3.7484,3.7472,3.7403,3.7405,3.7427,3.7522,3.7523,3.7575,3.7584,3.7618,0,3.7652,0,3.7657,3.7668,3.7669,0,0,0,3.7419,3.7464,3.7484,3.7405,3.7428,3.7522,3.7477,3.758,3.759,3.763,3.7653,3.7658,3.766,3.7669,3.767,3.7892,3.7894,0,0,3.7414,3.7423,3.7477,3.7491,3.7478,3.7474,3.748,3.7586,3.7611,3.7654,3.7661,3.7662,3.767,3.7671,3.7891,3.7893,0,0,0,3.7403,3.742,3.7436,3.7486,3.7502,3.7477,3.7484,3.7607,3.7611,3.7662,3.7663,3.7671,3.7673,3.789,3.7892,3.7968,0,0,0,3.74,3.7413,3.7434,3.7441,3.7501,3.7556,3.7502,3.7604,3.7616,3.7663,3.7671,3.7674,3.7888,3.7891,3.7963,3.8002,0,0,0,3.7393,3.7412,3.7429,3.7441,3.7483,3.7554,3.7565,3.7606,3.7617,3.7669,3.7674,3.7887,3.789,3.7958,3.7994,3.8065,0,0,0,3.7388,3.7493,3.743,3.7548,3.7482,3.7601,3.7564,3.7651,3.7704,3.7672,3.7888,3.7892,3.7957,3.7989,3.806,3.8127,3.8155,0,0,3.7525,3.7509,3.7578,3.7525,3.7658,3.7585,3.7729,3.7768,3.7763,3.7849,3.7855,3.7965,3.7994,3.8064,3.8311,3.8333,0,0,0,3.7624,3.7673,3.7707,3.776,3.7794,3.7827,3.7844,3.7859,3.7933,3.781,3.8008,3.8026,3.8066,3.8098,3.8117,3.8152,3.7906,3.7906,3.7906,3.7828,3.782,3.7934,3.7938,3.799,3.8009,3.805,3.8073,3.8047,3.8094,3.812,3.8271,3.8308,3.8322,3.8359,3.8154,3.8154,3.8154,3.8155,3.8028,3.8097,3.8065,3.8163,3.8154,3.8236,3.8259,3.8238,3.8313,3.825,3.8285,3.8217,3.8348,3.8379,3.816,3.8159,3.8158,3.8158,3.8158,3.8161,3.8193,3.8212,3.8291,3.8352,3.8352,3.8428,3.8416,3.8404,3.844,3.8467,3.8465,3.8463,3.8454,3.8454,3.8455,3.8455,3.8456,3.8456,3.8292,3.8311,3.8377,3.8426,3.846,3.8504,3.8526,3.8559,3.8593,3.8578,3.8578,3.8549,3.8362,3.8316,3.8464,3.8463,3.8461,3.8461,3.846,3.8498,3.845,3.8552,3.8587,3.8645,3.8708,3.8694,3.8763,3.8788,3.8826,3.879,3.8654,3.8636,3.8621,3.8583,3.8791,3.8791,3.8791,3.8791,3.861,3.8602,3.8705,3.8762,3.8817,3.8815,3.8931,3.8951,3.8963,3.8979,3.8947,3.8895,3.888,3.8871,3.885,3.8815,3.9077,3.9078,3.9078,3.8737,3.8734,3.8835,3.8849,3.8895,3.8934,3.9044,3.911,3.9114,3.9089,3.8991,3.8979,3.8895,3.8868,3.8839,3.8807,3.8741,0,0]},{"header":{"parameterUnit":"m.s-1","parameterCategory":1,"la1":30.2992,"la2":30.254,"lo1":-89.0895,"lo2":-89.0443,"dy":0.0025,"dx":0.0025,"nx":19,"ny":19,"refTime":"2026-05-08T21:00:00:Z","depth":0,"parameterNumber":3,"parameterNumberName":"V-component_of_WINDS"},"data":[0,0,0,0.6903,0.6903,0.6926,0.6926,0.6957,0.6958,0,0,0,0,0,0,0,0,0,0,0,0.6897,0.6897,0.6903,0.6903,0.6926,0.6926,0.6957,0.6958,0,0,0,0,0,0,0,0,0,0,0,0.6897,0.6897,0.6898,0.6903,0.6926,0.6926,0.6957,0.6939,0,0,0,0,0,0,0,0,0,0,0.6917,0.6913,0.6897,0.6898,0.6903,0.6926,0.6926,0.6938,0.694,0.6948,0,0.6955,0,0.6957,0.696,0.696,0,0,0,0.6902,0.6912,0.6916,0.6898,0.6904,0.6926,0.6915,0.6939,0.6942,0.6951,0.6955,0.6956,0.6957,0.696,0.696,0.7005,0.7005,0,0,0.6901,0.6902,0.6915,0.6918,0.6914,0.6915,0.6916,0.6941,0.6946,0.6955,0.6957,0.6958,0.696,0.696,0.7005,0.7005,0,0,0,0.6898,0.6901,0.6906,0.6917,0.692,0.6915,0.6917,0.6945,0.6946,0.6957,0.6958,0.696,0.6961,0.7005,0.7005,0.7018,0,0,0,0.6897,0.69,0.6905,0.6906,0.692,0.6933,0.6921,0.6945,0.6947,0.6958,0.696,0.6961,0.7004,0.7005,0.7017,0.7024,0,0,0,0.6895,0.6899,0.6903,0.6906,0.6916,0.6933,0.6935,0.6945,0.6948,0.696,0.6961,0.7004,0.7005,0.7016,0.7023,0.7036,0,0,0,0.6894,0.6915,0.6903,0.6928,0.6916,0.694,0.6935,0.6954,0.6966,0.6961,0.7004,0.7005,0.7016,0.7022,0.7035,0.7047,0.7052,0,0,0.6922,0.6919,0.6933,0.6923,0.695,0.6937,0.6966,0.6976,0.6977,0.6996,0.6997,0.7017,0.7023,0.7036,0.708,0.7084,0,0,0,0.6942,0.6952,0.6959,0.697,0.6978,0.6985,0.699,0.6993,0.7009,0.6987,0.7026,0.7029,0.7036,0.7042,0.7045,0.7052,0.7008,0.7008,0.7008,0.6984,0.6982,0.7005,0.7006,0.7016,0.7021,0.7029,0.7034,0.7031,0.704,0.7045,0.7073,0.7079,0.7082,0.7088,0.7052,0.7052,0.7052,0.7052,0.7025,0.7038,0.7031,0.705,0.7048,0.7064,0.7069,0.7065,0.708,0.7069,0.7075,0.7063,0.7086,0.7092,0.7053,0.7052,0.7052,0.7052,0.7052,0.7052,0.7058,0.7061,0.7076,0.7087,0.7087,0.71,0.7098,0.7096,0.7103,0.7108,0.7108,0.7107,0.7105,0.7105,0.7105,0.7105,0.7105,0.7105,0.7079,0.7082,0.7094,0.7102,0.7108,0.7116,0.7119,0.7125,0.713,0.7128,0.7128,0.7122,0.7089,0.708,0.7107,0.7107,0.7107,0.7106,0.7106,0.7121,0.7111,0.7129,0.7135,0.7144,0.7154,0.715,0.7162,0.7166,0.7173,0.7166,0.7141,0.7139,0.7136,0.7129,0.7166,0.7166,0.7166,0.7166,0.7144,0.7142,0.7159,0.7168,0.7177,0.7174,0.7194,0.7197,0.7198,0.72,0.7194,0.7184,0.7182,0.718,0.7177,0.717,0.7217,0.7217,0.7217,0.7169,0.7168,0.7185,0.7185,0.7191,0.7197,0.7215,0.7226,0.7224,0.7219,0.7201,0.7199,0.7184,0.7179,0.7174,0.7169,0.7157,0,0]}]]